Location: Martz Observatory
(42.0083°N, 79.0667°W)
Time: 15:49:23
(UTC-04:00)

Daily predictions for brighter satellites

Satellite Brightness Start Highest point End
(mag) Time Altitude Azimuth Time Altitude Azimuth Time Altitude Azimuth
Cosmos 44 3.5 20:29:09 10° NW 20:33:33 66° WSW 20:38:07 10° SSE
Cosmos 1655 Rocket 4.1 20:27:56 10° S 20:34:09 67° E 20:40:27 10° NNE
Meteor 2-4 Rocket 4.3 20:30:48 10° N 20:35:57 37° ENE 20:41:11 10° SE
Okean 2 Rocket 3.3 20:33:08 10° S 20:37:38 80° W 20:42:11 10° N
CZ-2D R/B 3.2 20:34:04 10° SSE 20:37:55 73° ENE 20:41:46 10° N
ATLAS 2AS CENTAUR R/B 3.4 20:31:54 10° S 20:38:48 39° ESE 20:46:06 10° NE
BREEZE-M DEB (TANK) 2.6 20:41:38 10° SW 20:44:16 52° SE 20:50:38 10° ENE
Meteor 1-13 Rocket 4.4 20:38:44 10° N 20:44:40 63° ENE 20:50:31 10° SSE
BREEZE-M DEB (TANK) 3.3 20:43:30 10° WNW 20:46:32 70° SSW 20:58:18 10° SE
H-2A R/B 4.1 20:44:55 10° S 20:48:31 41° W 20:52:06 10° NNW
NOSS 2-3 (E) 4.0 20:44:51 10° SSW 20:49:20 52° ESE 20:54:31 10° NE
Helios 1B rocket 3.8 20:51:19 10° NE 20:54:22 20° E 20:57:25 10° SE
Cosmos 839 Rocket 4.2 20:48:17 10° SW 20:54:31 77° WNW 21:00:51 10° NNE
Resurs 1-3 3.6 20:51:56 10° SSE 20:56:19 88° WSW 21:00:44 10° NNW
USA 186 1.8 20:53:06 10° SSE 20:56:28 87° ENE 20:59:52 10° N
Lacrosse 5 2.1 20:52:49 10° SSW 20:57:38 45° SE 21:02:28 10° ENE
Cosmos 1452 Rocket 4.1 20:52:48 10° SSW 20:58:01 62° WNW 21:03:17 10° NNE
Cosmos 1420 Rocket 4.0 20:54:05 10° SSW 20:59:15 86° WNW 21:04:29 10° NNE
Cosmos 1850 Rocket 4.1 20:54:12 10° NNW 20:59:32 68° ENE 21:04:47 10° SSE
Atlas Centaur 2 3.9 20:55:55 10° WSW 21:03:09 33° S 21:08:52 13° SE
SeaSat 1 2.5 21:03:16 10° NE 21:08:09 57° ESE 21:12:59 10° SSW
ARGOS 4.5 21:08:23 14° ESE 21:11:22 22° ENE 21:15:26 10° NNE
Cosmos 1607 4.1 21:06:35 10° NNW 21:13:02 68° NE 21:18:19 16° SE
Okean 1 Rocket 3.2 21:13:18 10° SSE 21:17:30 50° E 21:21:45 10° NNE
Cosmos 220 Rocket 4.2 21:13:25 10° N 21:17:39 51° ENE 21:20:29 20° SE
Cosmos 1300 Rocket 3.4 21:14:07 10° S 21:18:25 79° E 21:22:44 10° N
Cosmos 2263 Rocket 2.2 21:13:18 10° NNW 21:19:02 82° ENE 21:23:58 14° SSE
Cosmos 1025 Rocket 3.6 21:17:02 10° N 21:21:02 37° ENE 21:23:14 22° SE
Cosmos 2278 Rocket 4.5 21:21:10 10° NE 21:21:30 10° NE 21:21:50 10° NE
NOSS 2-3 (C) 4.0 21:18:17 10° SW 21:22:58 83° NW 21:28:29 10° NE
Okean 2 4.2 21:19:23 10° N 21:23:06 33° ENE 21:24:45 24° ESE
Cosmos 2322 Rocket 2.5 21:17:28 10° SSW 21:23:09 71° WNW 21:28:51 10° NNE
YAOGAN 6 2.5 21:22:14 19° SSE 21:24:36 64° ENE 21:28:06 10° N
Meteor 1-11 Rocket 4.0 21:18:47 10° SSW 21:24:37 75° W 21:30:21 10° N
GPS 2-05 Rocket1 4.4 21:23:00 10° WSW 21:25:38 21° SSW 21:26:33 19° S
SJ-11-01 4.2 21:21:02 10° SSE 21:25:42 87° ENE 21:30:23 10° NNW
Cosmos 1844 Rocket 4.1 21:21:13 10° N 21:25:43 23° NE 21:28:30 17° E
S3M 4.5 21:19:49 10° NNW 21:26:01 65° W 21:32:16 10° S
Tiangong 1 1.1 21:23:20 10° W 21:26:02 50° SSW 21:26:47 36° SSE
Okean 1-7 Rocket 3.9 21:26:18 10° N 21:30:39 47° ENE 21:32:58 25° SE
Cosmos 2266 Rocket 3.9 21:25:31 10° S 21:31:33 85° E 21:37:36 10° N
Resurs 01 Rocket 3.3 21:28:26 10° SSW 21:32:26 33° W 21:36:28 10° NNW
Abrixas rocket 3.9 21:32:30 10° NW 21:35:22 27° N 21:37:17 16° ENE
SL-16 R/B 2.9 21:29:49 10° SW 21:35:22 57° WNW 21:40:59 10° NNE
USA 238 DEB 4.1 21:28:41 10° NNW 21:35:36 52° NE 21:39:58 23° ESE
USA 238 4.2 21:28:47 10° NNW 21:35:42 51° NE 21:40:04 23° ESE
Cosmos 1515 4.3 21:33:28 10° N 21:37:03 38° ENE 21:37:54 33° ESE
Terra 4.0 21:38:02 10° ENE 21:38:49 11° ENE 21:39:54 10° NE
Cosmos 2315 Rocket 4.0 21:32:36 10° N 21:38:50 64° E 21:43:24 19° SSE
Cosmos 1975 4.1 21:40:38 23° ENE 21:40:38 23° ENE 21:43:23 10° NE
Cosmos 2219 Rocket 3.9 21:42:46 15° ENE 21:42:46 15° ENE 21:44:43 10° ENE
Meteor 1-23 Rocket 4.2 21:36:38 10° N 21:42:14 85° W 21:47:03 14° S
EXPRESS MD2 4.4 21:39:48 10° W 21:42:32 38° NNW 21:47:17 10° ENE
Nadezhda 2 Rocket 4.5 21:37:49 10° S 21:43:52 63° E 21:50:02 10° NNE
Helios 1A 3.0 21:41:23 21° SSE 21:44:10 84° WSW 21:48:27 10° NNW
Cosmos 2322 3.7 21:41:06 10° S 21:46:38 60° ESE 21:52:14 10° NNE
ERS-1 Rocket 3.0 21:46:40 29° SE 21:49:07 62° ENE 21:54:05 10° N
ATLAS 3B R/B 2.6 21:43:48 10° NNW 21:50:33 69° NE 21:53:55 30° SE
Cosmos 1500 3.5 21:52:07 45° ESE 21:52:21 46° E 21:56:05 10° NNE
USA 245 4.3 21:51:09 33° ESE 21:52:22 39° ENE 21:56:19 10° N
Meteor 1-29 2.7 21:49:45 10° NNE 21:53:11 76° ESE 21:54:01 48° S
Cosmos 2360 Rocket 2.1 21:50:07 10° SSW 21:55:45 87° ESE 22:01:26 10° NNE
Cosmos 1939 Rocket 4.3 21:53:53 10° SSW 21:57:31 34° W 22:01:07 10° NNW
COSMOS 2428 3.1 21:55:48 32° SE 21:57:37 40° ESE 22:02:56 10° NE
H-2A R/B 2.4 22:08:23 40° E 22:09:16 45° ENE 22:14:00 10° N
Cosmos 1892 Rocket 3.6 22:05:40 10° N 22:10:02 58° E 22:10:26 55° ESE
Cosmos 2333 Rocket 3.7 22:13:04 20° ENE 22:13:04 20° ENE 22:15:28 10° NE
SAR-Lupe-4 3.7 22:12:33 60° SW 22:12:58 67° WSW 22:16:34 10° NNW
Cosmos 1238 Rocket 4.0 22:06:26 10° N 22:13:10 71° E 22:15:42 38° SSE
NOAA 11 4.4 22:12:04 28° S 22:14:59 71° WSW 22:20:31 10° NNW
CZ-4B DEB 3.9 22:15:44 34° W 22:15:44 34° W 22:18:19 10° NNW
Cosmos 2333 4.2 22:16:47 45° SSE 22:18:01 55° ESE 22:23:30 10° NNE
Cosmos 1302 Rocket 3.9 22:19:33 33° S 22:21:58 78° ESE 22:27:16 10° NNE
Cosmos 1544 Rocket 3.5 22:24:22 67° E 22:24:22 67° E 22:28:40 10° NNE
Cosmos 1486 Rocket 3.9 22:20:01 10° NNW 22:25:16 79° ENE 22:26:11 61° SE
MetOp-A 4.3 22:24:43 38° S 22:26:47 69° WSW 22:32:08 10° NNW
Cosmos 2237 Rocket 4.1 22:30:37 15° ENE 22:30:37 15° ENE 22:31:57 10° NE
Aureole 3 Rocket 4.2 22:19:17 10° N 22:27:46 86° E 22:30:15 42° SSE
Cosmos 405 3.6 22:28:31 55° NNW 22:28:31 55° NNW 22:31:28 10° N
ATLAS 2AS CENTAUR R/B 3.7 22:22:01 10° SW 22:29:37 55° NW 22:37:37 10° NNE
Helios 1B rocket 4.1 22:26:03 10° N 22:29:44 33° WNW 22:33:24 10° SW
SPOT 5 2.7 22:33:36 72° S 22:34:08 88° W 22:38:48 10° NNW
BREEZE M DEB (TANK) 2.7 22:27:58 10° WSW 22:33:38 59° SW 22:33:38 59° SW
Cosmos 1241 Rocket 4.4 22:28:32 10° SSW 22:35:06 81° ESE 22:41:37 10° NNE
Cosmos 1455 Rocket 3.1 22:37:04 70° NE 22:37:04 70° NE 22:41:06 10° N
CENTAUR R/B 4.2 22:32:44 10° NNW 22:39:26 31° NE 22:43:21 22° E
NOSS 3-4 (A) 3.9 22:41:26 42° E 22:41:26 42° E 22:46:15 10° NE
Cosmos 1066 Rocket 4.1 22:34:42 10° NNW 22:40:09 79° W 22:41:15 58° S
NOSS 3-4 (C) 4.0 22:41:38 41° E 22:41:38 41° E 22:46:21 10° NE
Lacrosse 5 3.3 22:35:59 10° WSW 22:40:41 37° NNW 22:45:25 10° NE
SL-8 R/B 3.8 22:43:56 10° WNW 22:48:14 67° W 22:48:14 67° W
SL-08 RB Rocket 4.0 22:49:38 58° WSW 22:49:46 58° W 22:54:16 10° NNW
ARGOS 3.7 22:49:54 41° SW 22:51:14 51° W 22:56:29 10° NNW
Atlas Centaur 2 4.3 22:46:33 10° WSW 22:51:30 19° SSW 22:51:30 19° SSW
Nadezhda 1 Rocket 3.9 22:45:55 10° N 22:52:15 79° E 22:53:09 66° SSE
Cosmos 1743 4.3 22:56:17 31° N 22:56:17 31° N 22:58:23 10° N
Landsat 7 4.0 23:01:05 67° N 23:01:05 67° N 23:05:15 10° NNW
Meteor 1-21 4.1 22:55:43 10° N 23:01:12 74° ENE 23:01:12 74° ENE
Cosmos 1354 Rocket 4.0 22:57:39 10° NNW 23:02:44 80° N 23:02:44 80° N
DMSP B5D2-2 4.1 22:57:58 10° NNE 23:02:48 75° NNE 23:02:48 75° NNE
Cosmos 2278 Rocket 2.6 23:01:23 10° NNW 23:06:39 53° NE 23:06:39 53° NE
Cosmos 1709 Rocket 4.2 23:10:41 54° ENE 23:10:41 54° ENE 23:16:03 10° NNE
Cosmos 1844 Rocket 3.0 23:04:25 10° NNW 23:10:00 58° WSW 23:10:09 58° WSW
SPOT 1/Viking Rocket 4.0 23:10:41 53° WSW 23:10:50 54° W 23:15:58 10° NNW
Cosmos 2181 Rocket 4.5 23:04:46 10° N 23:10:38 48° ENE 23:10:38 48° ENE
Cosmos 1818 4.0 23:10:06 32° WSW 23:12:28 58° NW 23:17:51 10° NNE
Terra 2.4 23:16:55 53° N 23:16:55 53° N 23:20:34 10° NNW
H-2A R/B 3.7 23:23:50 30° N 23:23:50 30° N 23:26:16 10° N
Cosmos 2219 Rocket 2.4 23:24:26 67° WNW 23:24:29 67° WNW 23:30:08 10° NNE
NOSS 3-2 (A) 4.0 23:17:02 10° NW 23:24:34 71° WSW 23:25:38 63° SSW
Meteor 2-9 Rocket 4.5 23:27:37 64° NNE 23:27:37 64° NNE 23:32:22 10° N
SL-16 R/B 4.1 23:39:45 18° NE 23:39:45 18° NE 23:41:21 10° NE
ATLAS 3B R/B 4.1 23:35:36 10° WNW 23:40:32 23° WSW 23:41:11 22° WSW
COSMOS 2428 4.3 23:37:40 14° WSW 23:41:57 32° NW 23:47:03 10° N
H-2A R/B 3.9 23:49:01 21° W 23:49:01 21° W 23:52:40 10° NW
NOSS 0 Rocket 4.2 23:51:55 64° NW 23:51:55 64° NW 23:57:53 10° NNE
ATLAS CENTAUR R/B 4.2 23:52:43 10° N 23:53:18 13° N 23:53:18 13° N
